This demonstration page uses our WeatherBlox Daily Observations layout. Learn more.

Left ArrowRight Arrow

Hourly Observations for May 22, 2021

Temp ( °F °C ) Dew Point ( °F °C ) Humidity (%) Winds ( mph kmh ) Pressure ( in mb ) Visibility ( mi km ) Precip ( " mm )
12:15 am 00:15 Clear 64 18 54 12 68 68 SW 5 7 30.41 1030 10 16 0.00 0.00
12:35 am 00:35 Clear 63 17 54 12 73 73 Calm 30.42 1030 10 16 0.00 0.00
12:55 am 00:55 Clear 63 17 55 13 77 77 Calm 30.41 1030 10 16 0.00 0.00
1:15 am 01:15 Clear 64 18 54 12 68 68 SW 3 6 30.40 1030 10 16 0.00 0.00
1:35 am 01:35 Clear 61 16 54 12 77 77 WSW 3 6 30.40 1029 10 16 0.00 0.00
1:55 am 01:55 Clear 61 16 54 12 77 77 WSW 3 6 30.39 1029 10 16 0.00 0.00
2:15 am 02:15 Clear 63 17 54 12 73 73 Calm 30.39 1029 10 16 0.00 0.00
2:35 am 02:35 Clear 61 16 54 12 77 77 Calm 30.38 1029 10 16 0.00 0.00
2:55 am 02:55 Clear 59 15 54 12 82 82 Calm 30.37 1028 10 16 0.00 0.00
3:15 am 03:15 Clear 59 15 54 12 82 82 Calm 30.36 1028 10 16 0.00 0.00
3:35 am 03:35 Clear 59 15 54 12 82 82 Calm 30.36 1028 10 16 0.00 0.00
3:55 am 03:55 Clear 59 15 54 12 82 82 Calm 30.36 1028 10 16 0.00 0.00
4:15 am 04:15 Clear 59 15 54 12 82 82 Calm 30.36 1028 10 16 0.00 0.00
4:35 am 04:35 Clear 55 13 54 12 94 94 Calm 30.35 1028 10 16 0.00 0.00
4:55 am 04:55 Clear 55 13 54 12 94 94 Calm 30.35 1028 10 16 0.00 0.00
5:15 am 05:15 Clear 55 13 54 12 94 94 Calm 30.35 1028 10 16 0.00 0.00
5:35 am 05:35 Clear 55 13 54 12 94 94 Calm 30.35 1028 10 16 0.00 0.00
5:55 am 05:55 Sunny 55 13 52 11 88 88 Calm 30.35 1028 10 16 0.00 0.00
6:15 am 06:15 Sunny 55 13 54 12 94 94 Calm 30.36 1028 10 16 0.00 0.00
6:35 am 06:35 Sunny 55 13 54 12 94 94 Calm 30.35 1028 10 16 0.00 0.00
6:55 am 06:55 Sunny 57 14 54 12 88 88 Calm 30.36 1028 10 16 0.00 0.00
7:15 am 07:15 Sunny 59 15 55 13 88 88 Calm 30.36 1028 10 16 0.00 0.00
7:35 am 07:35 Sunny 61 16 55 13 83 83 Calm 30.36 1028 10 16 0.00 0.00
7:55 am 07:55 Sunny 63 17 55 13 77 77 Calm 30.36 1028 10 16 0.00 0.00
8:15 am 08:15 Sunny 64 18 57 14 78 78 Calm 30.35 1028 10 16 0.00 0.00
8:35 am 08:35 Sunny 68 20 57 14 69 69 Calm 30.35 1028 10 16 0.00 0.00
8:55 am 08:55 Sunny 68 20 59 15 73 73 Calm 30.35 1028 10 16 0.00 0.00
9:15 am 09:15 Sunny 70 21 59 15 69 69 Calm 30.35 1028 10 16 0.00 0.00
9:35 am 09:35 Sunny 73 23 59 15 61 61 Calm 30.35 1028 10 16 0.00 0.00
9:55 am 09:55 Sunny 77 25 59 15 54 54 WNW 7 11 30.33 1027 10 16 0.00 0.00
10:15 am 10:15 Partly Cloudy 79 26 59 15 51 51 WNW 8 13 30.33 1027 10 16 0.00 0.00
10:35 am 10:35 Mostly Cloudy 81 27 57 14 45 45 NW 10 17 30.32 1027 10 16 0.00 0.00
10:55 am 10:55 Partly Cloudy 81 27 57 14 45 45 NNW 8 13 30.32 1027 10 16 0.00 0.00
11:15 am 11:15 Partly Cloudy 81 27 57 14 45 45 NW 12 19 30.31 1026 10 16 0.00 0.00
11:35 am 11:35 Mostly Cloudy 82 28 59 15 45 45 NW 12 19 30.31 1026 10 16 0.00 0.00
11:55 am 11:55 Partly Cloudy 82 28 57 14 42 42 NW 9 15 30.30 1026 10 16 0.00 0.00
12:15 pm 12:15 Sunny 82 28 59 15 45 45 N 12 19 30.29 1026 10 16 0.00 0.00
12:35 pm 12:35 Sunny 82 28 59 15 45 45 N 7 11 30.29 1026 10 16 0.00 0.00
12:55 pm 12:55 Sunny 86 30 59 15 40 40 NNW 9 15 30.28 1025 10 16 0.00 0.00
1:15 pm 13:15 Sunny 86 30 59 15 40 40 NNW 10 17 30.27 1025 10 16 0.00 0.00
1:35 pm 13:35 Sunny 86 30 59 15 40 40 NW 13 20 30.26 1025 10 16 0.00 0.00
1:55 pm 13:55 Sunny 86 30 59 15 40 40 NNW 14 22 30.25 1024 10 16 0.00 0.00
2:15 pm 14:15 Sunny 86 30 59 15 40 40 NW 17 28 30.25 1024 10 16 0.00 0.00
2:35 pm 14:35 Sunny 86 30 59 15 40 40 NNW 13 20 30.24 1024 10 16 0.00 0.00
2:55 pm 14:55 Sunny 86 30 59 15 40 40 N 13 20 30.23 1024 10 16 0.00 0.00
3:15 pm 15:15 Sunny 86 30 61 16 43 43 NW 14 22 30.22 1023 10 16 0.00 0.00
3:35 pm 15:35 Sunny 86 30 59 15 40 40 N 14 22 30.22 1023 10 16 0.00 0.00
3:55 pm 15:55 Sunny 86 30 59 15 40 40 NNW 14 22 30.21 1023 10 16 0.00 0.00
4:15 pm 16:15 Sunny 86 30 59 15 40 40 NNW 15 24 30.20 1023 10 16 0.00 0.00
4:35 pm 16:35 Sunny 86 30 59 15 40 40 NW 9 15 30.19 1022 10 16 0.00 0.00
4:55 pm 16:55 Partly Cloudy 86 30 59 15 40 40 NW 13 20 30.18 1022 10 16 0.00 0.00
5:15 pm 17:15 Sunny 86 30 61 16 43 43 WNW 14 22 30.18 1022 10 16 0.00 0.00
5:35 pm 17:35 Sunny 84 29 61 16 45 45 WNW 12 19 30.17 1022 10 16 0.00 0.00
5:55 pm 17:55 Sunny 84 29 61 16 45 45 WNW 9 15 30.17 1022 10 16 0.00 0.00
6:15 pm 18:15 Sunny 84 29 61 16 45 45 NW 10 17 30.17 1022 10 16 0.00 0.00
6:35 pm 18:35 Sunny 82 28 59 15 45 45 NNW 12 19 30.17 1022 10 16 0.00 0.00
6:55 pm 18:55 Sunny 82 28 57 14 42 42 NW 10 17 30.17 1022 10 16 0.00 0.00
7:15 pm 19:15 Sunny 82 28 57 14 42 42 NNW 7 11 30.17 1022 10 16 0.00 0.00
7:35 pm 19:35 Sunny 81 27 57 14 45 45 NW 10 17 30.16 1021 10 16 0.00 0.00
7:55 pm 19:55 Sunny 81 27 59 15 48 48 NW 9 15 30.17 1022 10 16 0.00 0.00
8:15 pm 20:15 Sunny 79 26 59 15 51 51 NW 7 11 30.17 1022 10 16 0.00 0.00
8:35 pm 20:35 Clear 79 26 59 15 51 51 NW 7 11 30.16 1021 10 16 0.00 0.00
8:55 pm 20:55 Clear 79 26 59 15 51 51 NW 8 13 30.16 1021 10 16 0.00 0.00
9:15 pm 21:15 Clear 79 26 57 14 48 48 WNW 8 13 30.16 1021 10 16 0.00 0.00
9:35 pm 21:35 Partly Cloudy 79 26 55 13 45 45 WNW 8 13 30.16 1021 10 16 0.00 0.00
9:55 pm 21:55 Partly Cloudy 79 26 55 13 45 45 WNW 9 15 30.16 1021 10 16 0.00 0.00
10:15 pm 22:15 Clear 79 26 54 12 42 42 WNW 7 11 30.17 1022 10 16 0.00 0.00
10:35 pm 22:35 Clear 77 25 54 12 44 44 NW 6 9 30.17 1022 10 16 0.00 0.00
10:55 pm 22:55 Partly Cloudy 77 25 54 12 44 44 WNW 8 13 30.16 1021 10 16 0.00 0.00
11:15 pm 23:15 Mostly Cloudy 75 24 54 12 47 47 W 7 11 30.17 1022 10 16 0.00 0.00
11:35 pm 23:35 Mostly Cloudy 75 24 55 13 50 50 W 5 7 30.17 1022 10 16 0.00 0.00
11:55 pm 23:55 Mostly Cloudy 73 23 55 13 53 53 WNW 3 6 30.16 1021 10 16 0.00 0.00

Powered by AerisWeather